CZ-6A DEB, 61825

Orbit data source: Space-Track

CZ-6A DEB, 61825 is space debris in LEO originally from a launch on Tue, 06 Aug 2024 UTC launched from the Taiyaun Space Center, China (TSC). Debris objects in space refer to the collection of defunct objects orbiting the Earth. Examples of debris include non-operational satellites, rocket bodies, and fragments generated from explosions, collisions, or faulty payload assembly.

Loading next visibility...
Identifier
61825, 2024-140ACR
Orbit
LEO
Country
Flag of CNCN / PRC
Related business
Manufacturer
SAST
Mission
Spacecraft
Bus & Motor
Unknown
Mass
Unknown
Launch date (UTC)
2024-08-06 (2 years ago)
Launch vehicle
Unknown
Launch site
Taiyaun Space Center, China (TSC)
Object type
Payload
Rocket body
Debris
Shape & HBR
Unknown shape, 0.1 m
Radar Cross Section
Medium (>0.1 m² and <1 m²)

Expand to show TLE details & history
Last TLE update: 14 hours ago

TLE from 14 hours ago
0 CZ-6A DEB
1 61825U 24140ACR 26171.28296282  .00001856  00000-0  77773-3 0  9993
2 61825  89.0056 274.3865 0041336 171.9612 188.2253 14.25175142 92047
Epoch: 2026-06-20T06:47Z
TLE epoch observation values (Epoch: 2026-06-20T06:47:27.987Z)
Latitude
-0.00001°
Longitude
-95.97993°
Altitude
840.372 km
Speed
7.417 km/s
True Right ascension
18h 17m 32s
True Declination
0° 00' 00"
Sunlit
Object was in full shadow at epoch
Visualization orbit readout
Latitude
Unknown
Longitude
Unknown
Altitude
Unknown
Speed
Unknown
Apparent Right ascension
Unknown
Apparent Declination
Unknown
Sunlit
N/A
Visualization observer readout
Local Sidereal Time
07:21:16
Azimuth
Unknown
Elevation
Unknown
Doppler factor
Unknown
Orbital elements
Apogee altitude
834.539 km
Perigee altitude
775.156 km
Semi-major axis
7,182.985 km
Eccentricity
0.00413
Inclination
89.0056°
RAAN
274.3865°
Arg. of periapsis
171.9612°
True anomaly
188.15788°
Mean anomaly
188.2253°
Eccentric anomaly
188.19155°
Mean motion
3.56522 °/min
Orbital period
100.98 mins
BSTAR
0.00077773
Loading maneuver chart data...
Computing Atmospheric mass density...
Loading historical data...
Loading historical data...
Loading historical data...
Loading historical data...
Loading historical data...
Loading historical data...
Loading historical data...

Documentation

Showing up to 5 results
|